{"data":{"norad_id":68981,"intl_designator":"2026-100B","name":"IRIDE-MS2-HEO-7","alt_names":[],"object_type":"PAYLOAD","status":"ACTIVE","operator":null,"country":"IT","launch_date":"2026-05-03","launch_site_code":"AFWTR","launch_vehicle":null,"mission":null,"orbit_class":"UNKNOWN","rcs_meters":null,"size_class":null,"mass_kg":null,"dimensions":null,"purposes":[],"wikipedia_slug":null,"has_3d_model":false,"image_url":null,"decayed_at":null,"tle_current":{"epoch":"2026-05-25T03:26:04.082784Z","epoch_age_seconds":59213,"freshness":"FRESH","line1":"1 68981U 26100B   26145.14310281  .00001325  00000+0  13951-3 0  9991","line2":"2 68981  97.7386  43.0056 0003538 207.1306 152.9728 14.91040232  3261","mean_motion":14.91040232,"eccentricity":0.0003538,"inclination_deg":97.7386,"raan_deg":43.0056,"arg_perigee_deg":207.1306,"mean_anomaly_deg":152.9728,"bstar":0.00013951,"rev_number":326,"period_min":96.576870904983,"perigee_km":592.22370577559,"apogee_km":597.1576786506,"semimajor_km":6972.8276922131,"source":"CELESTRAK","updated_at":"2026-05-25T13:38:08.806797Z"}}}